Location: Newark
(12.4436°N, 0.6167°W)
Time: 08:49:43
(UTC+00:00)

Vanguard 1 - Pass Details

Date: 14 December 2019
Orbit: 651 x 3833 km, 34.2° (Epoch: 24 January)

Event Time Altitude Azimuth Distance (km) Brightness Sun altitude
Rises 06:43:58 0° 295° (WNW) 7,973 14.0 5.6°
Reaches altitude 10° 06:50:37 10° 303° (WNW) 6,873 13.8 7.1°
Maximum altitude 07:10:09 37° 5° (N) 4,071 13.1 11.4°
Drops below altitude 10° 07:22:56 10° 68° (ENE) 4,620 14.2 14.1°
Sets 07:26:18 0° 77° (ENE) 5,227 14.6 14.9°
